Time,TemperatureF,DewpointF,PressureIn,WindDirection,WindDirectionDegrees,WindSpeedMPH,WindSpeedGustMPH,Humidity,HourlyPrecipIn,Conditions,Clouds,dailyrainin,SoftwareType,DateUTC
2013-06-15 00:02:00,70.0,63.0,29.87,SSW,213,0.0,0.0,78,0.00,,,0.00,,2013-06-15 05:02:00,
2013-06-15 00:12:00,69.0,64.0,29.88,SW,223,0.0,9.0,83,0.00,,,0.00,,2013-06-15 05:12:00,
2013-06-15 00:22:00,68.0,64.0,29.88,WSW,239,0.0,5.0,88,0.02,,,0.02,,2013-06-15 05:22:00,
2013-06-15 00:34:00,67.0,64.0,29.88,WSW,239,3.0,7.0,90,0.02,,,0.02,,2013-06-15 05:34:00,
2013-06-15 00:42:00,66.0,63.0,29.88,SSW,192,4.0,6.0,91,0.02,,,0.02,,2013-06-15 05:42:00,
2013-06-15 00:52:00,66.0,64.0,29.88,SW,236,3.0,7.0,92,0.02,,,0.02,,2013-06-15 05:52:00,
2013-06-15 01:02:00,66.0,64.0,29.88,SE,127,6.0,11.0,93,0.02,,,0.02,,2013-06-15 06:02:00,
2013-06-15 01:12:00,66.0,64.0,29.88,SE,140,0.0,7.0,93,0.02,,,0.02,,2013-06-15 06:12:00,
2013-06-15 01:24:00,66.0,64.0,29.88,SE,125,4.0,10.0,94,0.00,,,0.02,,2013-06-15 06:24:00,
2013-06-15 01:33:00,66.0,64.0,29.88,ESE,123,0.0,9.0,94,0.00,,,0.02,,2013-06-15 06:33:00,
2013-06-15 01:43:00,66.0,64.0,29.88,SSW,202,0.0,5.0,94,0.00,,,0.02,,2013-06-15 06:43:00,
2013-06-15 01:53:00,65.0,64.0,29.87,SE,140,4.0,5.0,95,0.00,,,0.02,,2013-06-15 06:53:00,
2013-06-15 02:01:00,65.0,64.0,29.87,SSW,196,0.0,4.0,95,0.00,,,0.02,,2013-06-15 07:01:00,
2013-06-15 02:11:00,65.0,64.0,29.88,SSW,196,0.0,0.0,96,0.00,,,0.02,,2013-06-15 07:11:00,
2013-06-15 02:23:00,65.0,64.0,29.88,SSW,196,0.0,0.0,96,0.00,,,0.02,,2013-06-15 07:23:00,
2013-06-15 02:33:00,65.0,64.0,29.87,ESE,115,0.0,0.0,96,0.00,,,0.02,,2013-06-15 07:33:00,
2013-06-15 02:43:00,65.0,64.0,29.87,ESE,115,0.0,0.0,96,0.00,,,0.02,,2013-06-15 07:43:00,
2013-06-15 02:53:00,65.0,64.0,29.87,ESE,115,0.0,0.0,97,0.00,,,0.02,,2013-06-15 07:53:00,
2013-06-15 03:02:00,65.0,64.0,29.87,ESE,115,0.0,0.0,97,0.00,,,0.02,,2013-06-15 08:02:00,
2013-06-15 03:11:00,65.0,64.0,29.87,ESE,115,0.0,0.0,97,0.00,,,0.02,,2013-06-15 08:11:00,
2013-06-15 03:22:00,65.0,64.0,29.87,ESE,115,0.0,0.0,97,0.00,,,0.02,,2013-06-15 08:22:00,
2013-06-15 03:33:00,65.0,64.0,29.87,ESE,115,0.0,0.0,97,0.00,,,0.02,,2013-06-15 08:33:00,
2013-06-15 03:42:00,65.0,64.0,29.87,ESE,115,0.0,0.0,98,0.00,,,0.02,,2013-06-15 08:42:00,
2013-06-15 03:53:00,64.0,63.0,29.87,ESE,115,0.0,0.0,98,0.00,,,0.02,,2013-06-15 08:53:00,
2013-06-15 04:02:00,64.0,64.0,29.85,ESE,115,0.0,0.0,99,0.00,,,0.02,,2013-06-15 09:02:00,
2013-06-15 04:12:00,64.0,64.0,29.85,ESE,115,0.0,0.0,99,0.00,,,0.02,,2013-06-15 09:12:00,
2013-06-15 04:22:00,64.0,64.0,29.85,ESE,115,0.0,0.0,99,0.00,,,0.02,,2013-06-15 09:22:00,
2013-06-15 04:33:00,64.0,64.0,29.85,ESE,115,0.0,0.0,99,0.00,,,0.02,,2013-06-15 09:33:00,
2013-06-15 04:43:00,64.0,64.0,29.86,ESE,115,0.0,0.0,99,0.00,,,0.02,,2013-06-15 09:43:00,
2013-06-15 04:52:00,64.0,64.0,29.85,ESE,115,0.0,0.0,99,0.00,,,0.02,,2013-06-15 09:52:00,
2013-06-15 05:02:00,64.0,64.0,29.85,ESE,115,0.0,0.0,99,0.00,,,0.02,,2013-06-15 10:02:00,
2013-06-15 05:11:00,64.0,64.0,29.85,ESE,115,0.0,0.0,99,0.00,,,0.02,,2013-06-15 10:11:00,
2013-06-15 05:23:00,64.0,64.0,29.85,ESE,115,0.0,0.0,99,0.00,,,0.02,,2013-06-15 10:23:00,
2013-06-15 05:33:00,63.0,63.0,29.85,ESE,115,0.0,0.0,99,0.00,,,0.02,,2013-06-15 10:33:00,
2013-06-15 05:44:00,63.0,63.0,29.85,ESE,115,0.0,0.0,99,0.00,,,0.02,,2013-06-15 10:44:00,
2013-06-15 05:53:00,63.0,63.0,29.85,ESE,115,0.0,0.0,99,0.00,,,0.02,,2013-06-15 10:53:00,
2013-06-15 06:02:00,63.0,63.0,29.86,ESE,115,0.0,0.0,99,0.00,,,0.02,,2013-06-15 11:02:00,
2013-06-15 06:11:00,63.0,63.0,29.86,ESE,115,0.0,0.0,99,0.00,,,0.02,,2013-06-15 11:11:00,
2013-06-15 06:22:00,63.0,63.0,29.86,ESE,115,0.0,0.0,99,0.00,,,0.02,,2013-06-15 11:22:00,
2013-06-15 06:33:00,63.0,63.0,29.86,ESE,115,0.0,0.0,99,0.00,,,0.02,,2013-06-15 11:33:00,
2013-06-15 06:43:00,63.0,63.0,29.87,ESE,115,0.0,0.0,99,0.00,,,0.02,,2013-06-15 11:43:00,
2013-06-15 06:53:00,63.0,63.0,29.86,ESE,115,0.0,0.0,99,0.00,,,0.02,,2013-06-15 11:53:00,
2013-06-15 07:01:00,64.0,64.0,29.86,ESE,115,0.0,0.0,99,0.00,,,0.02,,2013-06-15 12:01:00,
2013-06-15 07:12:00,64.0,64.0,29.85,ESE,115,0.0,0.0,99,0.00,,,0.02,,2013-06-15 12:12:00,
2013-06-15 07:22:00,65.0,65.0,29.86,ESE,115,0.0,0.0,99,0.00,,,0.02,,2013-06-15 12:22:00,
2013-06-15 07:33:00,65.0,65.0,29.86,ESE,115,0.0,0.0,99,0.00,,,0.02,,2013-06-15 12:33:00,
2013-06-15 07:43:00,66.0,66.0,29.86,ESE,115,0.0,0.0,99,0.00,,,0.02,,2013-06-15 12:43:00,
2013-06-15 07:52:00,67.0,67.0,29.86,ESE,115,0.0,0.0,99,0.00,,,0.02,,2013-06-15 12:52:00,
2013-06-15 08:02:00,68.0,67.0,29.86,ESE,115,0.0,0.0,97,0.00,,,0.02,,2013-06-15 13:02:00,
2013-06-15 08:11:00,68.0,67.0,29.86,ESE,115,0.0,0.0,95,0.00,,,0.02,,2013-06-15 13:11:00,
2013-06-15 08:22:00,69.0,66.0,29.86,ESE,115,0.0,0.0,91,0.00,,,0.02,,2013-06-15 13:22:00,
2013-06-15 08:32:00,70.0,67.0,29.86,SE,133,0.0,0.0,89,0.00,,,0.02,,2013-06-15 13:32:00,
2013-06-15 08:43:00,70.0,67.0,29.86,SSW,198,0.0,3.0,90,0.00,,,0.02,,2013-06-15 13:43:00,
2013-06-15 08:53:00,71.0,67.0,29.86,West,264,0.0,0.0,87,0.00,,,0.02,,2013-06-15 13:53:00,
2013-06-15 09:01:00,71.0,67.0,29.86,West,264,0.0,0.0,87,0.00,,,0.02,,2013-06-15 14:01:00,
2013-06-15 09:12:00,71.0,67.0,29.87,West,264,0.0,0.0,87,0.00,,,0.02,,2013-06-15 14:12:00,
2013-06-15 09:22:00,72.0,67.0,29.87,West,264,0.0,0.0,85,0.00,,,0.02,,2013-06-15 14:22:00,
2013-06-15 09:34:00,72.0,67.0,29.87,West,264,0.0,0.0,85,0.00,,,0.02,,2013-06-15 14:34:00,
2013-06-15 09:43:00,72.0,67.0,29.87,West,264,0.0,0.0,85,0.00,,,0.02,,2013-06-15 14:43:00,
2013-06-15 09:53:00,72.0,67.0,29.87,West,264,0.0,0.0,85,0.00,,,0.02,,2013-06-15 14:53:00,
2013-06-15 10:02:00,72.0,67.0,29.87,West,264,0.0,0.0,85,0.00,,,0.02,,2013-06-15 15:02:00,
2013-06-15 10:11:00,72.0,67.0,29.87,West,264,0.0,0.0,85,0.00,,,0.02,,2013-06-15 15:11:00,
2013-06-15 10:22:00,72.0,67.0,29.87,West,264,0.0,0.0,85,0.00,,,0.02,,2013-06-15 15:22:00,
2013-06-15 10:33:00,73.0,68.0,29.88,West,264,0.0,0.0,83,0.00,,,0.02,,2013-06-15 15:33:00,
2013-06-15 10:43:00,73.0,68.0,29.88,West,264,0.0,0.0,83,0.00,,,0.02,,2013-06-15 15:43:00,
2013-06-15 10:53:00,73.0,68.0,29.87,West,264,0.0,0.0,83,0.00,,,0.02,,2013-06-15 15:53:00,
2013-06-15 11:01:00,73.0,67.0,29.87,West,264,0.0,0.0,82,0.00,,,0.02,,2013-06-15 16:01:00,
2013-06-15 11:11:00,74.0,69.0,29.87,West,264,0.0,0.0,84,0.00,,,0.02,,2013-06-15 16:11:00,
2013-06-15 11:22:00,75.0,69.0,29.86,South,189,0.0,0.0,81,0.00,,,0.02,,2013-06-15 16:22:00,
2013-06-15 11:33:00,74.0,68.0,29.85,South,180,0.0,4.0,81,0.00,,,0.02,,2013-06-15 16:33:00,
2013-06-15 11:43:00,74.0,68.0,29.83,South,180,0.0,0.0,83,0.00,,,0.02,,2013-06-15 16:43:00,
2013-06-15 11:53:00,74.0,68.0,29.85,South,180,0.0,0.0,81,0.00,,,0.02,,2013-06-15 16:53:00,
2013-06-15 12:02:00,74.0,68.0,29.87,WSW,250,0.0,4.0,81,0.00,,,0.02,,2013-06-15 17:02:00,
2013-06-15 12:12:00,74.0,68.0,29.88,SSE,168,0.0,8.0,82,0.00,,,0.02,,2013-06-15 17:12:00,
2013-06-15 12:22:00,74.0,68.0,29.88,SSE,157,3.0,5.0,82,0.00,,,0.02,,2013-06-15 17:22:00,
2013-06-15 12:32:00,74.0,68.0,29.88,SE,137,0.0,0.0,82,0.00,,,0.02,,2013-06-15 17:32:00,
2013-06-15 12:43:00,74.0,68.0,29.88,SE,137,0.0,0.0,82,0.00,,,0.02,,2013-06-15 17:43:00,
2013-06-15 12:52:00,75.0,69.0,29.88,SSE,147,0.0,4.0,82,0.00,,,0.02,,2013-06-15 17:52:00,
2013-06-15 13:01:00,75.0,69.0,29.88,SSE,147,0.0,0.0,81,0.00,,,0.02,,2013-06-15 18:01:00,
2013-06-15 13:12:00,75.0,69.0,29.88,SSE,147,0.0,0.0,82,0.00,,,0.02,,2013-06-15 18:12:00,
2013-06-15 13:22:00,74.0,68.0,29.88,North,358,2.0,5.0,82,0.00,,,0.02,,2013-06-15 18:22:00,
2013-06-15 13:32:00,74.0,68.0,29.88,West,281,0.0,6.0,83,0.00,,,0.02,,2013-06-15 18:32:00,
2013-06-15 13:43:00,74.0,69.0,29.87,West,281,0.0,0.0,85,0.00,,,0.02,,2013-06-15 18:43:00,
2013-06-15 13:53:00,74.0,70.0,29.87,West,281,0.0,0.0,87,0.00,,,0.02,,2013-06-15 18:53:00,
2013-06-15 14:01:00,72.0,70.0,29.85,NNE,32,0.0,5.0,93,0.10,,,0.12,,2013-06-15 19:01:00,
2013-06-15 14:11:00,72.0,70.0,29.85,NNE,32,0.0,0.0,92,0.10,,,0.12,,2013-06-15 19:11:00,
2013-06-15 14:22:00,72.0,70.0,29.85,NNE,32,0.0,0.0,95,0.10,,,0.12,,2013-06-15 19:22:00,
2013-06-15 14:33:00,71.0,70.0,29.85,NNE,32,0.0,0.0,96,0.10,,,0.12,,2013-06-15 19:33:00,
2013-06-15 14:43:00,71.0,70.0,29.86,NNE,32,0.0,0.0,96,0.10,,,0.12,,2013-06-15 19:43:00,
2013-06-15 14:52:00,71.0,70.0,29.86,SW,230,3.0,10.0,97,0.10,,,0.12,,2013-06-15 19:52:00,
2013-06-15 15:02:00,69.0,67.0,29.86,West,278,8.0,18.0,92,0.12,,,0.14,,2013-06-15 20:02:00,
2013-06-15 15:11:00,67.0,65.0,29.85,SE,136,0.0,6.0,94,0.02,,,0.14,,2013-06-15 20:11:00,
2013-06-15 15:22:00,67.0,65.0,29.87,North,351,0.0,7.0,94,0.02,,,0.14,,2013-06-15 20:22:00,
2013-06-15 15:33:00,67.0,65.0,29.87,North,351,0.0,7.0,94,0.02,,,0.14,,2013-06-15 20:33:00,
2013-06-15 15:43:00,66.0,65.0,29.87,NW,313,0.0,5.0,96,0.00,,,0.00,,2013-06-15 20:43:00,
2013-06-15 15:52:00,65.0,64.0,29.88,WNW,299,0.0,5.0,97,0.02,,,0.02,,2013-06-15 20:52:00,
2013-06-15 16:01:00,65.0,64.0,29.88,West,267,0.0,0.0,97,0.02,,,0.02,,2013-06-15 21:01:00,
2013-06-15 16:12:00,65.0,64.0,29.88,NNW,347,0.0,0.0,98,0.02,,,0.02,,2013-06-15 21:12:00,
2013-06-15 16:22:00,65.0,64.0,29.87,NNW,347,0.0,0.0,98,0.02,,,0.02,,2013-06-15 21:22:00,
2013-06-15 16:33:00,65.0,64.0,29.86,NW,310,3.0,9.0,98,0.02,,,0.02,,2013-06-15 21:33:00,
2013-06-15 16:42:00,67.0,66.0,29.85,North,9,1.0,3.0,95,0.02,,,0.02,,2013-06-15 21:42:00,
2013-06-15 16:52:00,68.0,67.0,29.86,North,1,0.0,0.0,96,0.00,,,0.02,,2013-06-15 21:52:00,
2013-06-15 17:01:00,68.0,65.0,29.85,North,1,0.0,0.0,90,0.00,,,0.02,,2013-06-15 22:01:00,
2013-06-15 17:11:00,68.0,65.0,29.85,North,1,0.0,0.0,90,0.00,,,0.02,,2013-06-15 22:11:00,
2013-06-15 17:22:00,69.0,65.0,29.85,NE,45,5.0,10.0,86,0.00,,,0.02,,2013-06-15 22:22:00,
2013-06-15 17:32:00,70.0,66.0,29.85,NNE,16,0.0,0.0,87,0.00,,,0.02,,2013-06-15 22:32:00,
2013-06-15 17:42:00,70.0,65.0,29.84,West,275,5.0,5.0,83,0.00,,,0.02,,2013-06-15 22:42:00,
2013-06-15 17:53:00,70.0,64.0,29.84,NNW,331,0.0,0.0,82,0.00,,,0.02,,2013-06-15 22:53:00,
2013-06-15 18:02:00,71.0,64.0,29.83,NNW,331,0.0,3.0,78,0.00,,,0.02,,2013-06-15 23:02:00,
2013-06-15 18:11:00,71.0,64.0,29.83,SSW,205,3.0,4.0,78,0.00,,,0.02,,2013-06-15 23:11:00,
2013-06-15 18:22:00,72.0,64.0,29.83,WSW,253,0.0,2.0,76,0.00,,,0.02,,2013-06-15 23:22:00,
2013-06-15 18:33:00,72.0,64.0,29.84,North,358,7.0,7.0,77,0.00,,,0.02,,2013-06-15 23:33:00,
2013-06-15 18:42:00,73.0,64.0,29.83,West,279,0.0,5.0,73,0.00,,,0.02,,2013-06-15 23:42:00,
2013-06-15 18:53:00,73.0,63.0,29.83,NNW,329,0.0,3.0,72,0.00,,,0.02,,2013-06-15 23:53:00,
2013-06-15 19:01:00,74.0,64.0,29.83,SW,223,0.0,0.0,71,0.00,,,0.02,,2013-06-16 00:01:00,
2013-06-15 19:11:00,74.0,64.0,29.83,NNW,337,0.0,0.0,70,0.00,,,0.02,,2013-06-16 00:11:00,
2013-06-15 19:22:00,74.0,64.0,29.83,NNW,337,0.0,0.0,70,0.00,,,0.02,,2013-06-16 00:22:00,
2013-06-15 19:33:00,74.0,64.0,29.83,NNW,337,0.0,0.0,71,0.00,,,0.02,,2013-06-16 00:33:00,
2013-06-15 19:43:00,74.0,64.0,29.83,NNW,337,0.0,0.0,71,0.00,,,0.02,,2013-06-16 00:43:00,
2013-06-15 19:52:00,75.0,65.0,29.84,NNW,337,0.0,0.0,72,0.00,,,0.02,,2013-06-16 00:52:00,
2013-06-15 20:01:00,74.0,64.0,29.84,NNW,337,0.0,0.0,72,0.00,,,0.02,,2013-06-16 01:01:00,
2013-06-15 20:11:00,73.0,64.0,29.84,NNW,337,0.0,0.0,74,0.00,,,0.02,,2013-06-16 01:11:00,
2013-06-15 20:22:00,73.0,64.0,29.84,NNW,337,0.0,0.0,74,0.00,,,0.02,,2013-06-16 01:22:00,
2013-06-15 20:33:00,73.0,65.0,29.84,NNW,337,0.0,0.0,76,0.00,,,0.02,,2013-06-16 01:33:00,
2013-06-15 20:42:00,73.0,65.0,29.84,NNW,337,0.0,0.0,77,0.00,,,0.02,,2013-06-16 01:42:00,
2013-06-15 20:53:00,72.0,65.0,29.84,NNW,337,0.0,0.0,78,0.00,,,0.02,,2013-06-16 01:53:00,
2013-06-15 21:02:00,72.0,65.0,29.84,NNW,337,0.0,0.0,78,0.00,,,0.02,,2013-06-16 02:02:00,
2013-06-15 21:12:00,71.0,65.0,29.84,NNW,337,0.0,0.0,82,0.00,,,0.02,,2013-06-16 02:12:00,
2013-06-15 21:22:00,70.0,65.0,29.84,NNW,337,0.0,0.0,84,0.00,,,0.02,,2013-06-16 02:22:00,
2013-06-15 21:33:00,69.0,64.0,29.84,NNW,337,0.0,0.0,85,0.00,,,0.02,,2013-06-16 02:33:00,
2013-06-15 21:43:00,69.0,65.0,29.85,NNW,337,0.0,0.0,87,0.00,,,0.02,,2013-06-16 02:43:00,
2013-06-15 21:53:00,68.0,65.0,29.85,NNW,337,0.0,0.0,89,0.00,,,0.02,,2013-06-16 02:53:00,
2013-06-15 22:02:00,68.0,65.0,29.85,NNW,337,0.0,0.0,90,0.00,,,0.02,,2013-06-16 03:02:00,
2013-06-15 22:12:00,67.0,65.0,29.86,NNW,337,0.0,0.0,92,0.00,,,0.02,,2013-06-16 03:12:00,
2013-06-15 22:22:00,67.0,-99.9,-100.00,NNW,337,0.0,0.0,-999,0.00,,,0.02,,2013-06-16 03:22:00,
2013-06-15 22:33:00,66.0,64.0,29.86,NNW,337,0.0,0.0,94,0.00,,,0.02,,2013-06-16 03:33:00,
2013-06-15 22:43:00,66.0,64.0,29.86,NNW,337,0.0,0.0,94,0.00,,,0.02,,2013-06-16 03:43:00,
2013-06-15 22:53:00,66.0,65.0,29.87,NNW,337,0.0,0.0,95,0.00,,,0.02,,2013-06-16 03:53:00,
2013-06-15 23:02:00,65.0,64.0,29.87,NNW,337,0.0,0.0,96,0.00,,,0.02,,2013-06-16 04:02:00,
2013-06-15 23:12:00,65.0,64.0,29.87,NNW,337,0.0,0.0,97,0.00,,,0.02,,2013-06-16 04:12:00,
2013-06-15 23:23:00,64.0,63.0,29.87,NNW,337,0.0,0.0,98,0.00,,,0.02,,2013-06-16 04:23:00,
2013-06-15 23:33:00,64.0,64.0,29.88,NNW,337,0.0,0.0,99,0.00,,,0.02,,2013-06-16 04:33:00,
2013-06-15 23:42:00,64.0,64.0,29.87,NNW,337,0.0,0.0,99,0.00,,,0.02,,2013-06-16 04:42:00,
2013-06-15 23:53:00,64.0,64.0,29.88,NNW,337,0.0,0.0,99,0.00,,,0.02,,2013-06-16 04:53:00,